When you browse on this site, cookies collect data to enhance your experience and personalize the content and advertising you see.
Visit our Privacy Policy to learn more. By continuing to use the site, you agree to this use of cookies and data.
  • In Hungary
  • List of Countries
  • For 7 days
  • Water Temperature
  • Weather Map
  • News
  • Weather Widgets
  • user-avatar
    Login

    Hourly Weather Zablocie

    Today, 23 September, Monday

    Time Temperature Precipitation Wind Pressure Humidity
    00:00 +12°C° 0 mm 1 mps 740 mmHg 80%
    01:00 +12°C° 0 mm 1 mps 740 mmHg 82%
    02:00 +11°C° 0 mm 1 mps 739 mmHg 81%
    03:00 +11°C° 0 mm 1 mps 739 mmHg 81%
    04:00 +11°C° 0 mm 1 mps 739 mmHg 81%
    05:00 +11°C° 0 mm 1 mps 739 mmHg 79%
    06:00 +12°C° 0 mm 1 mps 739 mmHg 77%
    07:00 +13°C° 0 mm 1 mps 740 mmHg 74%
    08:00 +14°C° 0 mm 1 mps 740 mmHg 69%
    09:00 +16°C° 0 mm 2 mps 740 mmHg 64%
    10:00 +17°C° 0 mm 2 mps 739 mmHg 59%
    11:00 +18°C° 0 mm 2 mps 739 mmHg 56%
    12:00 +19°C° 0 mm 2 mps 739 mmHg 54%
    13:00 +20°C° 0 mm 2 mps 740 mmHg 52%
    14:00 +20°C° 0 mm 2 mps 739 mmHg 55%
    15:00 +20°C° 0 mm 2 mps 739 mmHg 58%
    16:00 +20°C° 0 mm 2 mps 739 mmHg 62%
    17:00 +18°C° 0 mm 2 mps 739 mmHg 68%
    18:00 +16°C° 0 mm 2 mps 739 mmHg 75%
    19:00 +14°C° 0 mm 2 mps 739 mmHg 82%
    20:00 +13°C° 0 mm 2 mps 739 mmHg 84%
    21:00 +13°C° 0 mm 2 mps 739 mmHg 86%
    22:00 +12°C° 0 mm 2 mps 739 mmHg 89%
    23:00 +12°C° 0 mm 2 mps 740 mmHg 91%

    Tomorrow, 24 September, Tuesday

    Time Temperature Precipitation Wind Pressure Humidity
    00:00 +11°C° 0 mm 1 mps 740 mmHg 92%
    01:00 +11°C° 0 mm 1 mps 740 mmHg 94%
    02:00 +10°C° 0 mm 1 mps 740 mmHg 94%
    03:00 +10°C° 0 mm 1 mps 739 mmHg 95%
    04:00 +9°C° 0 mm 1 mps 739 mmHg 95%
    05:00 +10°C° 0 mm 1 mps 739 mmHg 93%
    06:00 +10°C° 0 mm 1 mps 739 mmHg 91%
    07:00 +11°C° 0 mm 1 mps 739 mmHg 89%
    08:00 +13°C° 0 mm 1 mps 739 mmHg 81%
    09:00 +15°C° 0 mm 2 mps 739 mmHg 73%
    10:00 +17°C° 0 mm 2 mps 739 mmHg 65%
    11:00 +18°C° 0 mm 2 mps 739 mmHg 60%
    12:00 +20°C° 0 mm 3 mps 739 mmHg 55%
    13:00 +21°C° 0 mm 3 mps 738 mmHg 50%
    14:00 +21°C° 0 mm 3 mps 738 mmHg 53%
    15:00 +20°C° 0 mm 3 mps 738 mmHg 56%
    16:00 +20°C° 0 mm 3 mps 738 mmHg 58%
    17:00 +18°C° 0 mm 3 mps 738 mmHg 66%
    18:00 +16°C° 0 mm 3 mps 737 mmHg 73%
    19:00 +14°C° 0 mm 2 mps 737 mmHg 80%
    20:00 +13°C° 0 mm 2 mps 737 mmHg 82%
    21:00 +13°C° 0 mm 2 mps 737 mmHg 83%
    22:00 +12°C° 0 mm 2 mps 737 mmHg 85%
    23:00 +12°C° 0 mm 1 mps 737 mmHg 85%

    Day after tomorrow, 25 September, Wednesday

    Time Temperature Precipitation Wind Pressure Humidity
    00:00 +12°C° 0 mm 1 mps 737 mmHg 84%
    01:00 +12°C° 0 mm 1 mps 737 mmHg 84%
    02:00 +12°C° 0 mm 1 mps 736 mmHg 82%
    03:00 +12°C° 0 mm 1 mps 736 mmHg 80%
    04:00 +13°C° 0 mm 1 mps 736 mmHg 78%
    05:00 +13°C° 0.2 mm 1 mps 736 mmHg 79%
    06:00 +13°C° 0.2 mm 1 mps 736 mmHg 81%
    07:00 +14°C° 0.2 mm 1 mps 736 mmHg 83%
    08:00 +15°C° 0 mm 1 mps 736 mmHg 82%
    09:00 +15°C° 0 mm 1 mps 736 mmHg 80%
    10:00 +16°C° 0 mm 1 mps 736 mmHg 79%
    11:00 +18°C° 0.1 mm 1 mps 736 mmHg 76%
    12:00 +19°C° 0.1 mm 1 mps 736 mmHg 73%
    13:00 +19°C° 0.1 mm 1 mps 736 mmHg 70%
    14:00 +19°C° 0.3 mm 1 mps 735 mmHg 72%
    15:00 +19°C° 0.3 mm 1 mps 735 mmHg 74%
    16:00 +19°C° 0.3 mm 1 mps 735 mmHg 77%
    17:00 +18°C° 0.2 mm 1 mps 735 mmHg 80%
    18:00 +16°C° 0.2 mm 1 mps 735 mmHg 83%
    19:00 +15°C° 0.2 mm 1 mps 735 mmHg 85%
    20:00 +15°C° 0 mm 2 mps 736 mmHg 86%
    21:00 +15°C° 0 mm 2 mps 736 mmHg 87%
    22:00 +14°C° 0 mm 2 mps 736 mmHg 88%
    23:00 +14°C° 0 mm 2 mps 736 mmHg 88%

    26 September, Thursday

    Time Temperature Precipitation Wind Pressure Humidity
    00:00 +14°C° 0 mm 2 mps 736 mmHg 88%
    01:00 +14°C° 0 mm 2 mps 736 mmHg 88%
    02:00 +14°C° 0 mm 2 mps 736 mmHg 87%
    03:00 +14°C° 0 mm 2 mps 736 mmHg 87%
    04:00 +14°C° 0 mm 2 mps 736 mmHg 86%
    05:00 +14°C° 0 mm 2 mps 736 mmHg 86%
    06:00 +14°C° 0 mm 2 mps 737 mmHg 86%
    07:00 +14°C° 0 mm 2 mps 737 mmHg 86%
    08:00 +15°C° 0 mm 2 mps 737 mmHg 81%
    09:00 +16°C° 0 mm 3 mps 738 mmHg 77%
    10:00 +17°C° 0 mm 3 mps 738 mmHg 72%
    11:00 +17°C° 0.1 mm 3 mps 738 mmHg 69%
    12:00 +18°C° 0.1 mm 3 mps 738 mmHg 66%
    13:00 +19°C° 0.1 mm 3 mps 738 mmHg 63%
    14:00 +18°C° 0.1 mm 3 mps 738 mmHg 64%
    15:00 +18°C° 0.1 mm 2 mps 738 mmHg 66%
    16:00 +18°C° 0.1 mm 2 mps 738 mmHg 68%
    17:00 +16°C° 0.1 mm 2 mps 738 mmHg 73%
    18:00 +15°C° 0.1 mm 2 mps 738 mmHg 78%
    19:00 +13°C° 0.1 mm 2 mps 739 mmHg 83%
    20:00 +13°C° 0 mm 2 mps 739 mmHg 85%
    21:00 +13°C° 0 mm 2 mps 739 mmHg 86%
    22:00 +12°C° 0 mm 2 mps 739 mmHg 88%
    23:00 +12°C° 0 mm 2 mps 740 mmHg 88%

    27 September, Friday

    Time Temperature Precipitation Wind Pressure Humidity
    00:00 +12°C° 0 mm 2 mps 740 mmHg 89%
    01:00 +12°C° 0 mm 2 mps 740 mmHg 89%
    02:00 +10°C° 0 mm 2 mps 740 mmHg 89%
    03:00 +10°C° 0 mm 2 mps 740 mmHg 89%
    04:00 +10°C° 0 mm 2 mps 740 mmHg 90%
    05:00 +12°C° 0 mm 2 mps 740 mmHg 88%
    06:00 +12°C° 0 mm 2 mps 740 mmHg 86%
    07:00 +13°C° 0 mm 1 mps 740 mmHg 84%
    08:00 +15°C° 0 mm 1 mps 741 mmHg 76%
    09:00 +18°C° 0 mm 1 mps 741 mmHg 69%
    10:00 +20°C° 0 mm 1 mps 741 mmHg 62%
    11:00 +21°C° 0 mm 1 mps 741 mmHg 58%
    12:00 +22°C° 0 mm 1 mps 741 mmHg 54%
    13:00 +23°C° 0 mm 1 mps 740 mmHg 49%
    14:00 +23°C° 0 mm 1 mps 740 mmHg 53%
    15:00 +22°C° 0 mm 1 mps 740 mmHg 56%
    16:00 +22°C° 0 mm 1 mps 740 mmHg 60%
    17:00 +21°C° 0.1 mm 1 mps 740 mmHg 66%
    18:00 +19°C° 0.1 mm 1 mps 740 mmHg 72%
    19:00 +18°C° 0.1 mm 1 mps 740 mmHg 78%
    20:00 +18°C° 0.3 mm 1 mps 740 mmHg 81%
    21:00 +16°C° 0.3 mm 2 mps 740 mmHg 84%
    22:00 +16°C° 0.3 mm 2 mps 741 mmHg 86%
    23:00 +16°C° 0.2 mm 2 mps 741 mmHg 87%

    28 September, Saturday

    Time Temperature Precipitation Wind Pressure Humidity
    00:00 +16°C° 0.2 mm 2 mps 740 mmHg 88%
    01:00 +16°C° 0.2 mm 2 mps 740 mmHg 88%
    02:00 +15°C° 0 mm 2 mps 740 mmHg 89%
    03:00 +15°C° 0 mm 2 mps 740 mmHg 89%
    04:00 +14°C° 0 mm 2 mps 740 mmHg 89%
    05:00 +15°C° 0 mm 2 mps 740 mmHg 88%
    06:00 +15°C° 0 mm 2 mps 740 mmHg 86%
    07:00 +15°C° 0 mm 2 mps 740 mmHg 84%
    08:00 +17°C° 0 mm 2 mps 741 mmHg 78%
    09:00 +19°C° 0 mm 2 mps 741 mmHg 72%
    10:00 +20°C° 0 mm 2 mps 741 mmHg 66%
    11:00 +21°C° 0.3 mm 3 mps 741 mmHg 65%
    12:00 +21°C° 0.3 mm 3 mps 741 mmHg 64%
    13:00 +21°C° 0.3 mm 3 mps 740 mmHg 64%
    14:00 +21°C° 0.6 mm 3 mps 740 mmHg 67%
    15:00 +20°C° 0.6 mm 3 mps 740 mmHg 71%
    16:00 +19°C° 0.6 mm 3 mps 740 mmHg 74%
    17:00 +18°C° 0.2 mm 3 mps 740 mmHg 77%
    18:00 +17°C° 0.2 mm 3 mps 740 mmHg 80%
    19:00 +17°C° 0.2 mm 3 mps 740 mmHg 82%
    20:00 +16°C° 0.1 mm 3 mps 741 mmHg 84%
    21:00 +16°C° 0.1 mm 3 mps 741 mmHg 85%
    22:00 +15°C° 0.1 mm 2 mps 741 mmHg 87%
    23:00 +15°C° 0 mm 2 mps 741 mmHg 87%
    Show more